678  
ASUS41 KBTV 220030  
RWRBTV  
VERMONT REGIONAL WEATHER ROUNDUP  
NATIONAL WEATHER SERVICE BURLINGTON VT  
800 PM EDT SAT APR 21 2018  
 
NOTE: "FAIR" INDICATES FEW OR NO CLOUDS BELOW 12,000 FEET WITH NO  
SIGNIFICANT WEATHER AND/OR S TO VISIBILITY
.  
 
* THESE REPORTS ARE NOT UNDER NWS QUALITY CONTROL AND/OR DO NOT  
REPORT WEATHER SUCH AS PRECIPITATION AND FOG.
 
 
VTZ001>019-220100-  
_____VERMONT_____  
 
 
CITY SKY/WX TMP DP RH WIND PRES REMARKS
 
BURLINGTON FAIR 50 18 28 N9 30.29R  
6HR MIN TEMP: 50; 6HR MAX TEMP: 55;  
 
MONTPELIER FAIR 42 20 41 NW5 30.30R  
6HR MIN TEMP: 42; 6HR MAX TEMP: 49;  
 
MORRISVILLE FAIR 39 23 52 CALM 30.28R  
6HR MIN TEMP: 39; 6HR MAX TEMP: 50;  
 
ST. JOHNSBURY* N/A 45 21 38 MISG 30.25R  
6HR MIN TEMP: 45; 6HR MAX TEMP: 52;  
 
LYNDONVILLE* FAIR 40 19 42 CALM 30.27R  
6HR MIN TEMP: 41; 6HR MAX TEMP: 48;  
 
MIDDLEBURY* FAIR 42 23 47 CALM 30.30R  
6HR MIN TEMP: 46; 6HR MAX TEMP: 54;  
 
RUTLAND* FAIR 47 16 29 NW5 30.28R  
6HR MIN TEMP: 47; 6HR MAX TEMP: 54;  
 
SPRINGFIELD FAIR 50 16 25 CALM 30.27R  
6HR MIN TEMP: 50; 6HR MAX TEMP: 56;  
 
HIGHGATE* FAIR 46 21 37 NW3 30.29R  
6HR MIN TEMP: 47; 6HR MAX TEMP: 53;  
 
NEWPORT* FAIR 40 22 46 W5 30.27R  
6HR MIN TEMP: 41; 6HR MAX TEMP: 48;  
 
BENNINGTON FAIR 49 16 26 N7 30.27R  
6HR MIN TEMP: 49; 6HR MAX TEMP: 57;  
 
ISLAND POND* N/A 36 N/A N/A CALM N/A  
GALLUP MILLS* N/A 32 N/A N/A MISG N/A  
UNION VILLAGE* N/A 41 N/A N/A MISG N/A  
MT. MANSFIELD* N/A 28 N/A N/A CALM N/A  
 
_____LAKE CHAMPLAIN_____  
 
 
CITY SKY/WX TMP DP RH WIND PRES REMARKS
 
BURTON ISLAND* N/A 45 30 57 NW7 N/A  
COLCHESTER RF* N/A 46 25 42 N15 N/A  
 

 
 
NYZ007-026>031-035-052-083-087-220100-  
_____NORTHERN NEW YORK_____  
 
 
CITY SKY/WX TMP DP RH WIND PRES REMARKS
 
PLATTSBURGH FAIR 49 14 24 NW10 30.29R  
6HR MIN TEMP: 49; 6HR MAX TEMP: 55;  
 
SARANAC LAKE FAIR 41 15 35 VRB3 30.27R  
6HR MIN TEMP: 41; 6HR MAX TEMP: 48;  
 
MASSENA FAIR 48 17 29 W6 30.33R  
6HR MIN TEMP: 48; 6HR MAX TEMP: 54;  
 
OGDENSBURG* FAIR 46 20 36 CALM 30.35R  
6HR MIN TEMP: 48; 6HR MAX TEMP: 57;  
 
POTSDAM* FAIR 46 16 29 W5 30.33R  
STARK FALLS* N/A 41 N/A N/A NW5 N/A  
WATERTOWN FAIR 42 25 50 SW8 30.35S  
6HR MIN TEMP: 42; 6HR MAX TEMP: 50;  
 
FT DRUM FAIR 44 23 43 SW10 30.33S  
6HR MIN TEMP: 44; 6HR MAX TEMP: 52;  
 
ALBANY FAIR 51 17 26 W12G21 30.30R  
6HR MIN TEMP: 51; 6HR MAX TEMP: 60;  
 
GLENS FALLS FAIR 48 17 29 N9 30.30R  
6HR MIN TEMP: 47; 6HR MAX TEMP: 57;  
 

 
NHZ002-005-011-220100-  
_____NEW HAMPSHIRE_____  
 
 
CITY SKY/WX TMP DP RH WIND PRES REMARKS
 
LEBANON FAIR 49 16 26 N6 30.26R  
6HR MIN TEMP: 49; 6HR MAX TEMP: 57;  
 
KEENE FAIR 49 15 25 NW6 30.26R  
6HR MIN TEMP: 49; 6HR MAX TEMP: 59;  
 
MT WASHINGTON MOCLDY 18 16 93 W46G54 N/A WCI -5  
6HR MIN TEMP: 17; 6HR MAX TEMP: 20;  
 
PLYMOUTH FAIR 46 21 37 NW6 30.26R  
6HR MIN TEMP: 47; 6HR MAX TEMP: 54;  
 
WHITEFIELD FAIR 42 22 44 CALM 30.25R  
6HR MIN TEMP: 42; 6HR MAX TEMP: 52;  
 

 
 
_____REGIONAL QUEBEC LOCATIONS_____  
 
 
CITY SKY/WX TMP DP RH WIND PRES REMARKS
 
MONTREAL PTCLDY 48 18 29 NW10G18 30.29R  
QUEBEC CITY PTCLDY 41 21 45 VRB2 30.23R  
SHERBROOKE PTCLDY 41 21 45 W3 30.23R  
 
_____REGIONAL ONTARIO LOCATIONS_____  
 
 
CITY SKY/WX TMP DP RH WIND PRES REMARKS
 
OTTAWA CLEAR 48 12 23 N7 30.32R  
 
______KEY______  
VSB - VISIBILITY IN MILES  
WCI - WIND CHILL INDEX  
HX - HEAT INDEX  

 
NNNN  
 
 
CLICK HERE TO GO TO PREVIOUS BULLETINS.

The Nexlab VT Page
The Nexlab NY Page Main Text Page